Epoch 2022 Aug. 9.0 TT = JDT 2459800.5 T 2021 Dec. 8.71152 TT Rudenko q 3.0149292 (2000.0) P Q z +0.0037045 Peri. 125.31732 +0.34671122 -0.74314716 +/-0.0000004 Node 66.04963 -0.92492136 -0.37230057 e 0.9888311 Incl. 141.22854 +0.15592246 -0.55598974 From 46 observations 2022 June 4-July 1, mean residual 0".3.
m1 = 13.5 + 5 logΔ + 10.0 log r